カタログに戻る

COSMOS 1927

運用中軍事LEO
NORAD 18940·PAYLOAD·🇷🇺 Russia

打ち上げ Mar 11, 1988 から Plesetsk Cosmodrome

Loading…

次のパス (今後24時間)

TLE

最新Source: Space-Track

元期: Sep 14, 2026, 09:50 UTC

1 18940U 88016D   26257.41023416  .00000010  00000-0  17197-3 0  9997
2 18940  74.0061 152.6356 0007038  96.8609  22.4614 12.50921769758681

AllMySatでCOSMOS 1927をリアルタイム追跡

Download on the App Store